W5TTY Weather Reports


time (UTC)temp
F
wind
direction
speed
knots
gust
knots
rain 1hr
in
rain 24hr
in
rain mn
in
humidity
%
barometer
mb
20260905050822 79 138 1.7 4.3 0.00 0.03 0.00 77 1013.3
20260905050323 80 155 1.7 5.2 0.00 0.03 0.00 77 1013.2
20260905045830 80 166 1.7 4.3 0.00 0.03 0.00 77 1013.3
20260905045336 80 171 1.7 4.3 0.00 0.03 0.03 77 1013.3
20260905044820 80 170 1.7 3.5 0.00 0.03 0.03 77 1013.2
20260905044325 80 190 0.9 4.3 0.00 0.03 0.03 77 1013.2
20260905043838 80 192 1.7 4.3 0.00 0.03 0.03 77 1013.3
20260905043345 80 188 1.7 4.3 0.00 0.03 0.03 76 1013.3
20260905042829 80 184 1.7 6.1 0.00 0.03 0.03 76 1013.3
20260905042333 80 144 2.6 6.1 0.00 0.03 0.03 76 1013.4
20260905041840 80 159 2.6 6.1 0.00 0.03 0.03 76 1013.3
20260905041321 80 146 1.7 6.1 0.00 0.03 0.03 76 1013.3
20260905040833 80 154 2.6 7.0 0.00 0.03 0.03 76 1013.4
20260905040342 80 158 3.5 7.0 0.00 0.03 0.03 76 1013.3
20260905035830 80 151 1.7 4.3 0.00 0.03 0.03 76 1013.3
20260905035338 80 187 1.7 6.1 0.00 0.03 0.03 75 1013.4
20260905034846 80 178 1.7 7.0 0.00 0.03 0.03 75 1013.3
20260905034332 80 148 1.7 7.8 0.00 0.03 0.03 75 1013.3
20260905033857 80 142 3.5 7.8 0.00 0.03 0.03 75 1013.3
20260905033322 80 125 3.5 7.0 0.00 0.03 0.03 75 1013.2
20260905032826 80 128 2.6 7.0 0.00 0.03 0.03 75 1013.3
20260905032359 80 138 2.6 7.8 0.00 0.03 0.03 75 1013.2
20260905031824 80 148 2.6 7.8 0.00 0.03 0.03 74 1013.3
20260905031328 80 150 3.5 7.8 0.00 0.03 0.03 74 1013.2
20260905030833 80 165 3.5 6.1 0.00 0.03 0.03 74 1013.2
20260905030320 80 132 2.6 6.1 0.00 0.03 0.03 74 1013.2
20260905025830 80 121 2.6 6.1 0.00 0.03 0.03 74 1013.3
20260905025335 80 157 2.6 6.1 0.00 0.03 0.03 73 1013.2
20260905024822 80 149 2.6 6.1 0.00 0.03 0.03 73 1013.2
20260905024326 80 132 2.6 6.1 0.00 0.03 0.03 73 1013.2
20260905023826 81 130 2.6 6.1 0.00 0.03 0.03 73 1013.2
20260905023334 81 126 3.5 6.1 0.00 0.03 0.03 73 1013.2
20260905022847 81 130 2.6 6.1 0.00 0.03 0.03 73 1013.1
20260905022350 81 138 2.6 4.3 0.00 0.03 0.03 73 1013.0
20260905021836 81 124 1.7 4.3 0.00 0.03 0.03 73 1013.0
20260905021343 82 119 2.6 4.3 0.00 0.03 0.03 73 1013.0
20260905020856 82 130 2.6 4.3 0.00 0.03 0.03 73 1012.9
20260905020322 82 189 1.7 3.5 0.00 0.03 0.03 73 1012.7
20260905015830 82 176 1.7 4.3 0.00 0.03 0.03 73 1012.7
20260905015332 82 173 1.7 4.3 0.00 0.03 0.03 73 1012.7
20260905014819 83 159 2.6 4.3 0.00 0.03 0.03 73 1012.6
20260905014323 83 164 1.7 4.3 0.00 0.03 0.03 73 1012.6
20260905013825 83 159 2.6 5.2 0.00 0.03 0.03 73 1012.5
20260905013328 84 152 2.6 6.1 0.00 0.03 0.03 73 1012.5
20260905012842 84 134 2.6 6.1 0.00 0.03 0.03 73 1012.5
20260905012344 84 142 3.5 6.1 0.00 0.03 0.03 73 1012.4
20260905011827 84 150 2.6 4.3 0.00 0.03 0.03 73 1012.3
20260905011334 85 144 1.7 7.0 0.00 0.03 0.03 73 1012.2
20260905010836 85 136 2.6 7.0 0.00 0.03 0.03 73 1012.2
20260905010350 86 140 3.5 4.3 0.00 0.03 0.03 73 1012.2
20260905005859 86 131 2.6 4.3 0.00 0.03 0.03 74 1012.1
20260905005321 86 127 1.7 3.5 0.00 0.03 0.03 74 1012.0
20260905004827 87 127 1.7 3.5 0.00 0.03 0.03 74 1011.9
20260905004342 87 140 1.7 2.6 0.00 0.03 0.03 74 1011.9
20260905003819 87 140 1.7 6.1 0.00 0.03 0.03 75 1011.8
20260905003332 87 141 2.6 6.1 0.00 0.03 0.03 75 1011.8
20260905002841 87 130 2.6 6.1 0.00 0.03 0.03 75 1011.8
20260905002326 88 136 2.6 6.1 0.00 0.03 0.03 76 1011.8
20260905001828 88 162 1.7 4.3 0.00 0.03 0.03 76 1011.8
20260905001329 88 163 2.6 7.0 0.00 0.03 0.03 76 1011.9
20260905000836 88 148 2.6 7.0 0.00 0.03 0.03 76 1011.8
20260905000325 88 124 2.6 7.0 0.00 0.03 0.03 77 1011.8
20260904235833 89 139 3.5 8.7 0.00 0.03 0.03 77 1011.8
20260904235336 89 130 4.3 8.7 0.00 0.04 0.03 77 1011.9
20260904234823 89 156 3.5 8.7 0.00 0.04 0.03 78 1011.8
20260904234328 89 128 4.3 7.8 0.00 0.04 0.03 78 1011.8
20260904233836 89 134 3.5 7.8 0.00 0.04 0.03 79 1011.8
20260904233344 89 140 3.5 7.8 0.00 0.04 0.03 79 1011.8
20260904232857 89 138 4.3 7.8 0.00 0.04 0.03 79 1011.8
20260904232321 89 122 4.3 7.0 0.00 0.04 0.03 80 1011.8
20260904231829 90 128 2.6 9.6 0.00 0.04 0.03 80 1011.8
20260904231336 90 101 5.2 9.6 0.00 0.04 0.03 81 1011.8
20260904230825 90 92 4.3 9.6 0.00 0.04 0.03 81 1011.8
20260904230334 90 129 6.1 10.4 0.00 0.04 0.03 81 1011.8
20260904225843 90 121 3.5 7.0 0.00 0.04 0.03 82 1011.8
20260904225324 90 122 3.5 8.7 0.00 0.04 0.03 82 1011.8
20260904224833 90 138 4.3 8.7 0.00 0.04 0.03 82 1011.8
20260904224320 90 134 3.5 8.7 0.00 0.04 0.03 83 1011.8
20260904223824 90 88 5.2 8.7 0.00 0.04 0.03 83 1011.8
20260904223327 90 183 3.5 7.8 0.00 0.04 0.03 83 1011.8
20260904222834 90 139 4.3 7.8 0.00 0.04 0.03 84 1011.9
20260904222318 90 149 4.3 10.4 0.00 0.04 0.03 84 1011.9
20260904221833 90 126 5.2 10.4 0.00 0.04 0.03 84 1011.9
20260904221339 90 103 3.5 12.2 0.00 0.04 0.03 84 1011.9
20260904220828 90 115 6.1 11.3 0.00 0.04 0.03 85 1011.9
20260904220332 90 107 6.1 11.3 0.00 0.04 0.03 85 1011.9
20260904215840 90 205 3.5 8.7 0.00 0.04 0.03 86 1012.0
20260904215331 89 157 2.6 7.0 0.00 0.05 0.03 86 1012.0
20260904214857 89 176 4.3 9.6 0.00 0.05 0.03 86 1012.1
20260904214322 89 150 5.2 11.3 0.00 0.05 0.03 86 1012.3
20260904213823 89 105 6.1 11.3 0.00 0.05 0.03 86 1012.3
20260904213328 89 190 4.3 11.3 0.00 0.05 0.03 86 1012.3
20260904212844 89 112 6.1 11.3 0.00 0.05 0.03 86 1012.3
20260904212346 89 125 5.2 13.0 0.00 0.05 0.03 87 1012.4
20260904211827 89 101 4.3 9.6 0.00 0.05 0.03 87 1012.5
20260904211329 89 134 5.2 8.7 0.00 0.05 0.03 87 1012.6
20260904210833 89 178 3.5 8.7 0.00 0.05 0.03 87 1012.5
20260904210347 89 215 2.6 13.0 0.00 0.05 0.03 87 1012.6
20260904205831 89 226 6.1 13.0 0.00 0.05 0.03 87 1012.6
20260904205317 89 89 6.1 12.2 0.00 0.05 0.03 88 1012.7
20260904204825 89 144 7.0 12.2 0.00 0.05 0.03 88 1012.7
20260904204330 89 148 4.3 10.4 0.00 0.05 0.03 88 1012.7
20260904203817 89 149 5.2 11.3 0.00 0.05 0.03 89 1012.7
20260904203327 89 151 7.0 15.6 0.00 0.05 0.03 89 1012.8
20260904202835 89 107 8.7 15.6 0.00 0.05 0.03 89 1012.8
20260904202319 89 131 5.2 10.4 0.00 0.05 0.03 89 1012.9
20260904201828 89 171 5.2 11.3 0.00 0.05 0.03 89 1012.9
20260904201327 89 146 6.1 11.3 0.00 0.05 0.03 89 1013.0
20260904200836 89 123 6.1 10.4 0.00 0.05 0.03 90 1013.0
20260904200324 89 115 2.6 12.2 0.00 0.05 0.03 90 1013.0
20260904195829 89 150 4.3 12.2 0.00 0.05 0.03 90 1012.9
20260904195334 89 178 5.2 7.8 0.00 0.05 0.03 91 1013.0
20260904194846 89 143 2.6 8.7 0.00 0.05 0.03 91 1013.0
20260904194330 88 145 4.3 8.7 0.00 0.05 0.03 91 1012.9
20260904193834 88 140 4.3 14.8 0.00 0.05 0.03 91 1013.1
20260904193319 88 109 6.1 14.8 0.00 0.05 0.03 91 1013.2
20260904192829 88 138 7.0 10.4 0.00 0.05 0.03 91 1013.3
20260904192332 88 111 6.1 10.4 0.00 0.05 0.03 92 1013.4
20260904191820 87 157 5.2 9.6 0.00 0.05 0.03 91 1013.6
20260904191326 87 136 6.1 9.6 0.00 0.05 0.03 91 1013.7
20260904190831 87 126 5.2 10.4 0.00 0.05 0.03 92 1013.7
20260904190320 87 108 4.3 10.4 0.00 0.05 0.03 92 1013.8
20260904185851 87 109 3.5 7.8 0.00 0.05 0.03 92 1013.9
20260904185345 87 108 2.6 8.7 0.00 0.06 0.03 92 1014.0
20260904184848 87 153 4.3 8.7 0.00 0.06 0.03 92 1014.0
20260904184356 87 132 3.5 8.7 0.00 0.06 0.03 92 1014.0
20260904183820 87 132 3.5 10.4 0.00 0.06 0.03 92 1014.0
20260904183338 87 189 6.1 7.8 0.00 0.06 0.03 92 1014.1
20260904182831 87 161 4.3 11.3 0.00 0.06 0.03 92 1014.0
20260904182357 88 147 4.3 11.3 0.00 0.06 0.03 92 1014.1
20260904181824 88 144 4.3 9.6 0.00 0.06 0.03 93 1014.2
20260904181328 88 222 3.5 9.6 0.00 0.06 0.03 93 1014.2
20260904180841 88 186 2.6 6.1 0.00 0.06 0.03 93 1014.2
20260904180319 88 205 3.5 9.6 0.00 0.06 0.03 93 1014.2
20260904175833 88 216 3.5 9.6 0.00 0.06 0.03 93 1014.3
20260904175339 88 163 3.5 7.8 0.00 0.23 0.03 94 1014.3
20260904174828 88 239 4.3 13.0 0.00 0.23 0.03 94 1014.2
20260904174352 88 208 7.0 13.0 0.00 0.23 0.03 94 1014.2
20260904173859 87 176 1.7 9.6 0.00 0.23 0.03 95 1014.2
20260904173324 87 200 5.2 9.6 0.00 0.23 0.03 95 1014.3
20260904172826 86 225 3.5 8.7 0.00 0.23 0.03 95 1014.4
20260904172330 86 244 3.5 7.0 0.00 0.23 0.03 95 1014.5
20260904171834 86 265 1.7 7.8 0.00 0.23 0.03 95 1014.6
20260904171338 85 106 3.5 8.7 0.00 0.23 0.03 95 1014.7
20260904170907 85 115 5.2 8.7 0.00 0.23 0.03 95 1014.8
20260904170329 85 119 3.5 6.1 0.00 0.23 0.03 95 1014.9
20260904165836 84 210 3.5 7.8 0.00 0.23 0.03 95 1014.9
20260904165321 84 163 4.3 10.4 0.00 0.35 0.03 94 1014.9
20260904164849 84 211 5.2 10.4 0.00 0.35 0.03 94 1014.7
20260904164332 84 15 0.9 4.3 0.00 0.35 0.03 94 1014.8
20260904163818 83 22 2.6 4.3 0.01 0.35 0.03 95 1014.8
20260904163320 83 355 1.7 3.5 0.01 0.35 0.03 94 1014.8
20260904162829 82 355 2.6 3.5 0.01 0.35 0.03 94 1014.8
20260904162333 82 11 1.7 3.5 0.01 0.35 0.03 94 1014.8
20260904161840 82 12 0.9 3.5 0.01 0.35 0.03 94 1014.8
20260904161325 82 351 1.7 4.3 0.01 0.35 0.03 93 1014.9
20260904160828 82 351 3.5 5.2 0.01 0.35 0.03 93 1014.9
20260904160336 82 340 2.6 5.2 0.01 0.35 0.03 93 1014.9
20260904155819 83 303 1.7 3.5 0.01 0.35 0.03 93 1014.8
20260904155322 83 258 0.9 2.6 0.01 0.44 0.03 93 1014.8
20260904154836 83 258 1.7 3.5 0.01 0.44 0.03 94 1014.9
20260904154342 83 259 2.6 3.5 0.01 0.44 0.03 94 1014.9
20260904153827 83 179 1.7 4.3 0.00 0.43 0.02 94 1014.9
20260904153328 83 209 2.6 4.3 0.00 0.43 0.02 94 1014.8
20260904152834 83 125 1.7 5.2 0.00 0.43 0.02 94 1014.8
20260904152318 83 126 2.6 7.0 0.00 0.43 0.02 94 1014.8
20260904151823 83 119 4.3 7.0 0.00 0.43 0.02 94 1014.7
20260904151325 82 126 3.5 6.1 0.00 0.43 0.02 94 1014.7
20260904150854 82 146 1.7 5.2 0.00 0.43 0.02 94 1014.7
20260904150318 82 148 1.7 6.1 0.00 0.43 0.02 94 1014.6
20260904145824 82 149 1.7 6.1 0.00 0.43 0.02 94 1014.7
20260904145325 82 129 1.7 3.5 0.00 0.44 0.02 94 1014.7
20260904144830 81 180 1.7 6.1 0.00 0.44 0.02 94 1014.6
20260904144341 81 173 2.6 7.0 0.00 0.44 0.02 93 1014.7
20260904143825 82 148 1.7 7.0 0.00 0.44 0.02 93 1014.7
20260904143331 82 144 1.7 7.0 0.00 0.44 0.02 93 1014.8
20260904142836 82 153 3.5 7.0 0.00 0.44 0.02 94 1014.7
20260904142320 81 170 2.6 7.0 0.00 0.44 0.02 94 1014.6
20260904141825 81 124 3.5 7.0 0.00 0.44 0.02 94 1014.5
20260904141330 81 147 3.5 7.0 0.00 0.44 0.02 94 1014.5
20260904140902 81 143 0.9 7.0 0.00 0.44 0.02 93 1014.6
20260904140321 81 123 4.3 7.0 0.00 0.44 0.02 93 1014.5
20260904135827 80 197 1.7 3.5 0.00 0.44 0.02 93 1014.4
20260904135329 80 117 0.9 3.5 0.00 0.45 0.02 93 1014.4
20260904134828 80 98 1.7 5.2 0.00 0.45 0.02 93 1014.4
20260904134334 80 85 3.5 7.0 0.00 0.45 0.02 93 1014.3
20260904133817 79 97 3.5 7.0 0.00 0.45 0.02 93 1014.4
20260904133350 79 111 3.5 7.0 0.00 0.45 0.02 93 1014.4
20260904132901 79 103 3.5 7.0 0.00 0.45 0.02 93 1014.4
20260904132342 79 95 2.6 5.2 0.00 0.45 0.02 93 1014.4
20260904131820 79 103 2.6 6.1 0.00 0.45 0.02 93 1014.3
20260904131333 79 78 2.6 4.3 0.00 0.45 0.02 93 1014.2
20260904130840 79 70 2.6 3.5 0.00 0.45 0.02 93 1014.1
20260904130327 79 84 0.9 5.2 0.00 0.45 0.02 93 1014.0
20260904125831 79 97 1.7 5.2 0.00 0.45 0.02 93 1014.0
20260904125335 78 91 0.9 5.2 0.00 0.45 0.02 93 1014.0
20260904124820 78 101 2.6 5.2 0.00 0.45 0.02 93 1013.9
20260904124326 78 103 2.6 5.2 0.00 0.45 0.02 93 1013.8
20260904123828 78 96 1.7 3.5 0.00 0.45 0.02 93 1013.8
20260904123329 78 107 1.7 3.5 0.00 0.45 0.02 93 1013.8
20260904122836 78 109 1.7 3.5 0.00 0.45 0.02 93 1013.6
20260904122320 78 100 1.7 3.5 0.00 0.45 0.02 93 1013.6
20260904121823 77 115 0.9 3.5 0.00 0.45 0.02 93 1013.6
20260904121329 77 119 1.7 3.5 0.00 0.45 0.02 93 1013.5
20260904120844 77 126 1.7 3.5 0.00 0.45 0.02 93 1013.3
20260904120326 77 126 1.7 3.5 0.00 0.45 0.02 93 1013.3
20260904115831 77 117 1.7 5.2 0.00 0.45 0.02 93 1013.2
20260904115337 77 107 2.6 5.2 0.00 0.45 0.02 93 1013.3
20260904114841 77 111 2.6 5.2 0.00 0.45 0.02 93 1013.3
20260904114332 77 101 1.7 5.2 0.00 0.45 0.02 93 1013.1
20260904113821 77 85 1.7 5.2 0.00 0.45 0.02 93 1013.1
20260904113347 78 82 1.7 5.2 0.00 0.45 0.02 93 1013.1
20260904112832 78 101 2.6 3.5 0.00 0.45 0.02 93 1013.1
20260904112357 78 107 1.7 3.5 0.00 0.45 0.02 93 1013.1
20260904111823 77 106 1.7 3.5 0.00 0.45 0.02 93 1013.0
20260904111329 78 119 1.7 3.5 0.00 0.45 0.02 93 1012.9
20260904110836 78 124 1.7 5.2 0.00 0.45 0.02 93 1012.9
20260904110322 78 126 2.6 5.2 0.00 0.45 0.02 93 1013.0
20260904105829 78 115 2.6 3.5 0.00 0.45 0.02 93 1013.0
20260904105354 78 130 0.9 2.6 0.00 0.45 0.02 93 1013.0
20260904104819 78 130 1.7 2.6 0.00 0.45 0.02 93 1013.0
20260904104323 77 130 1.7 2.6 0.00 0.45 0.02 93 1013.0